Regional Weather Roundup
Issued by NWS

Home | Current Version | Previous Version | Text Only | Print | Product List | Glossary Off
Versions: 1 2 3 4 5 6 7 8 9 10 11 12 13 14 15 16 17 18 19 20 21 22 23 24 25 26 27 28 29 30 31 32 33 34 35 36 37 38 39 40 41 42 43 44 45 46 47 48 49 50

000
ASUS43 KMKX 240121
RWRWI

WISCONSIN REGIONAL WEATHER ROUNDUP
NATIONAL WEATHER SERVICE MILWAUKEE/SULLIVAN WI
800 PM CDT WED APR 23 2014

NOTE: "FAIR" INDICATES FEW OR NO CLOUDS BELOW 12,000 FEET WITH NO
SIGNIFICANT WEATHER AND/OR OBSTRUCTIONS TO VISIBILITY.

WIZ001-002-006>008-014>016-023>028-240200-
NORTHWEST WISCONSIN

CITY           SKY/WX    TMP DP  RH WIND       PRES   REMARKS
SUPERIOR ARPT  CLOUDY    35  31  85 NE7       30.02R WCI  29
ASHLAND        CLOUDY    36  29  75 N3        30.03S
HAYWARD        CLOUDY    49  23  36 SE5       30.00R
SIREN          LGT RAIN  44  33  64 SE7G17    29.99F
RICE LAKE      RAIN      47  28  48 SE7       30.01R
LADYSMITH      CLOUDY    49  26  41 SE8       30.01F
EAU CLAIRE     LGT RAIN  43  38  82 SE7       29.99S
MENOMONIE      RAIN      42  38  85 E6        30.00R
NEW RICHMOND   DRIZZLE   41  39  91 E6        29.97S
OSCEOLA        LGT RAIN  41  40  98 E8        29.99F
$$

WIZ003>005-009-010-017-018-240200-
NORTH CENTRAL WISCONSIN

CITY           SKY/WX    TMP DP  RH WIND       PRES   REMARKS
WOODRUFF       CLOUDY    49  24  36 S6        30.02S
RHINELANDER    CLOUDY    47  21  35 S6        30.04F
EAGLE RIVER    CLOUDY    47  16  28 SE5       30.02F
LAND O LAKES   CLOUDY    48  18  30 S3        30.03F
PHILLIPS       CLOUDY    47  25  41 SE6       30.00F
TOMAHAWK       CLOUDY    46  24  41 CALM      30.03F
MEDFORD        CLOUDY    45  26  46 SE8       30.01F
MERRILL        CLOUDY    46  26  44 SE10      30.04F
$$

WIZ029-030-035-036-043>047-240200-
CENTRAL WISCONSIN

CITY           SKY/WX    TMP DP  RH WIND       PRES   REMARKS
WAUSAU         CLOUDY    47  23  38 SE12      30.03F
MOSINEE        MOCLDY    46  25  42 E7        30.05F
MARSHFIELD     CLOUDY    47  25  42 E10       30.01F
STEVENS POINT  CLOUDY    45  24  43 SE9       30.05F
WAUPACA        CLOUDY    48  28  46 SE10      30.08F
WAUTOMA        CLOUDY    48  28  46 E9        30.06F
WISC RAPIDS    CLOUDY    48  26  42 E10       30.04F
CAMP DOUGLAS   DRIZZLE   45  39  81 SE13      30.00F
$$

WIZ011>013-019>022-031-037>040-048>050-240200-
NORTHEAST WISCONSIN

CITY           SKY/WX    TMP DP  RH WIND       PRES   REMARKS
ANTIGO         CLOUDY    43  15  32 SE9       30.07S
STURGEON BAY   CLOUDY    39  14  35 S3        30.13F
GREEN BAY      CLOUDY    43  12  28 E7        30.12F
MANITOWOC      CLOUDY    40   8  26 CALM      30.13F
APPLETON       MOCLDY    45  19  36 SE8       30.10F
CLINTONVILLE   CLOUDY    45  27  49 E7        30.09S
OSHKOSH        CLOUDY    45  21  38 SE8       30.09F
$$

WIZ032>034-041-042-053>061-240200-
SOUTHWEST WISCONSIN

CITY           SKY/WX    TMP DP  RH WIND       PRES   REMARKS
LA CROSSE      LGT RAIN  45  36  70 SE8       29.99R
SPARTA         CLOUDY    43  39  85 E6        30.00F
VIROQUA        CLOUDY    43  35  74 E14       29.97S
BOSCOBEL       LGT RAIN  49  34  56 E6        29.99F
PRAIRIE DU CHI LGT RAIN  46  38  75 E8        29.98F
PLATTEVILLE    MOCLDY    47  37  65 E10       29.99F
$$

WIZ056-057-062-063-064-067-068-240200-
SOUTH CENTRAL WISCONSIN

CITY           SKY/WX    TMP DP  RH WIND       PRES   REMARKS
BARABOO/DELLS  DRIZZLE   45  35  66 E12G17    30.00F
LONE ROCK      CLOUDY    50  34  54 E13       29.99F
WATERTOWN      CLOUDY    45  24  44 E8        30.08F
MADISON        LGT RAIN  47  36  65 E10       30.05F
MIDDLETON      CLOUDY    47  34  60 SE10      30.03F
MONROE         CLOUDY    49  26  41 E13G22    30.01F
JANESVILLE     CLOUDY    50  25  37 E14       30.05F
$$

WIZ051-052-058>065-066-070>072-240200-
SOUTHEAST WISCONSIN

CITY           SKY/WX    TMP DP  RH WIND       PRES   REMARKS
MILWAUKEE      CLOUDY    39  19  44 NE7       30.13F WCI  34
WAUKESHA       CLOUDY    41  18  38 E6        30.13S
MILWAUKEE/TIMM NOT AVBL
RACINE         CLOUDY    39  22  50 NE6       30.13F WCI  35
BURLINGTON     CLOUDY    41  22  46 E7        30.11F
KENOSHA        CLOUDY    41  22  46 E7        30.11F
FOND DU LAC    CLOUDY    45  21  38 SE8       30.10F
SHEBOYGAN      CLOUDY    39  12  33 E5        30.12F
WEST BEND      CLOUDY    41  14  33 E5        30.11F
JUNEAU         CLOUDY    45  17  32 E10       30.09F
$$

LSZ147-162-240200-
LAKE SUPERIOR

STATION/POSITION TIME  TEMP    WIND        PRES    WAVE
                       AIR SEA DIR/SP/G            HT/PER
                 (UTC) (F)     (DEG/KT/KT) (MB)    (FT/S)
DEVILS ISLAND    0100   36      70/ 10/ 11 1017.9F
PORT WING        0040   35      40/  6/  7 1016.3F
SAXON HARBOR     0040             CALM     1016.3F
$$

LMZ867-665-643>646-240200-
LAKE MICHIGAN

STATION/POSITION TIME  TEMP    WIND        PRES    WAVE
                       AIR SEA DIR/SP/G            HT/PER
                 (UTC) (F)     (DEG/KT/KT) (MB)    (FT/S)
NORTHPORT PIER   0000   41     160/  4/  6 1020.3F
SISTER BAY       0053   41        CALM       N/A
KEWAUNEE LAKESHO 0000   39      30/  4/  4 1021.2F
SHEBOYGAN LAKESH 0100   39      20/  3/  4 1021.0F
PORT WASHINGTON  0000   39      80/  2/  3 1021.0F
MILWAUKEE LAKESH 0100   37      50/  7/  7   N/A
KENOSHA   LAKESH 0100   38      40/  5/  7   N/A
$$

TC  - TEMPERATURE IN CELSIUS
VSB - VISIBILITY IN STATUTE MILES
WCI - WIND CHILL INDEX
HX  - HEAT INDEX




USA.gov is the U.S. government's official web portal to all federal, state and local government web resources and services.